Location: Karlsruhe
(49.0131°N, 8.3874°E)
Time: 08:19:48
(UTC+02:00)

ISS - Pass Details

Date: 16 May 2021
Orbit: 419 x 422 km, 51.6° (Epoch: 24 June)

Event Time Altitude Azimuth Distance (km) Brightness Sun altitude
Rises 04:27:51 0° 287° (WNW) 2,446 -0.1 -10.4°
Reaches altitude 10° 04:30:16 10° 272° (W) 1,574 -1.2 -10.2°
Maximum altitude 04:33:07 23° 219° (SW) 1,003 -2.5 -9.8°
Drops below altitude 10° 04:35:58 10° 165° (SSE) 1,570 -1.1 -9.5°
Sets 04:38:22 0° 151° (SSE) 2,438 0.0 -9.2°
